• Processing (Info)

  • MPEC 2009-Q61 : 2009 QE34

    The following Minor Planet Electronic Circular may be linked-to from your own Web pages, but must not otherwise be redistributed electronically.

    A form allowing access to any MPEC is at the bottom of this page.


    Read MPEC 2009-Q60 Read MPEC 2009-Q62


    M.P.E.C. 2009-Q61                                Issued 2009 Aug. 28, 20:54 UT
    
         The Minor Planet Electronic Circulars contain information on unusual
             minor planets and routine data on comets.  They are published
       on behalf of Commission 20 of the International Astronomical Union by the
              Minor Planet Center, Smithsonian Astrophysical Observatory,
                              Cambridge, MA 02138, U.S.A.
    
                 Prepared using the Tamkin Foundation Computer Network
    
                                  MPC@CFA.HARVARD.EDU
              URL http://www.cfa.harvard.edu/iau/mpc.html  ISSN 1523-6714
    
                                       2009 QE34
    
    Observations:
         K09Q34E* C2009 08 26.47545 03 59 52.54 +03 08 28.8          19.1 V EQ061703
         K09Q34E  C2009 08 26.48147 03 59 49.23 +03 08 10.2          18.7 V EQ061703
         K09Q34E  C2009 08 26.48743 03 59 45.92 +03 07 51.2          19.3 V EQ061703
         K09Q34E  C2009 08 26.49330 03 59 42.64 +03 07 31.5          18.7 V EQ061703
         K09Q34E  C2009 08 28.40646 03 46 24.88 +01 35 17.4          18.8 V EQ061703
         K09Q34E  C2009 08 28.40707 03 46 24.67 +01 35 15.2          18.6 V EQ061703
         K09Q34E  C2009 08 28.40830 03 46 24.09 +01 35 12.5          19.0 V EQ061703
         K09Q34E  C2009 08 28.40890 03 46 23.84 +01 35 11.2          19.1 V EQ061703
         K09Q34E  C2009 08 28.41012 03 46 23.30 +01 35 07.1          19.7 V EQ061703
         K09Q34E  C2009 08 28.41065 03 46 23.12 +01 35 06.2          19.2 V EQ061703
         K09Q34E  C2009 08 28.41185 03 46 22.47 +01 35 04.0          19.0 V EQ061703
         K09Q34E  C2009 08 28.41247 03 46 22.33 +01 35 02.3          19.4 V EQ061703
         K09Q34E  C2009 08 28.80098 03 43 57.72 +01 22 41.0          18.6 R EQ061D21
         K09Q34E  C2009 08 28.81111 03 43 53.30 +01 22 16.4          18.7 R EQ061D21
    
    Observer details:
    703 Catalina Sky Survey.  Observers A. Boattini, R. E. Hill.  Measurers
        E. C. Beshore, A. Boattini, G. J. Garradd, A. R. Gibbs, A. D. Grauer,
        R. E. Hill, R. A. Kowalski, S. M. Larson, R. H. McNaught.  0.68-m Schmidt
        + CCD.
    D21 Shenton Park.  Observers P. Luckas, P. R. Holvorcem.  Measurer
        P. R. Holvorcem.  0.35-m f/8.9 Schmidt-Cassegrain + CCD.
    
    Orbital elements:
    2009 QE34                                                Earth MOID = 0.0077 AU
    Epoch 2009 June 18.0 TT = JDT 2455000.5                 MPC
    M 330.49931              (2000.0)            P               Q
    n   0.67231777     Peri.  164.02025     +0.60286504     +0.79737306
    a   1.2904851      Node   143.04278     -0.73690441     +0.56964721
    e   0.2323263      Incl.    2.61071     -0.30581962     +0.19924424
    P   1.47           H   23.4           G   0.15           U   7
    Residuals in seconds of arc
    090826 703  0.4-  0.3-    090828 703  0.4+  0.5-    090828 703  1.2-  0.6+
    090826 703  0.1+  0.4+    090828 703  0.2-  0.0     090828 703  0.8+  0.5+
    090826 703  0.2+  0.4+    090828 703  0.0   0.2+    090828 D21  0.4+  0.3-
    090826 703  0.1+  0.5-    090828 703  0.1-  0.7-    090828 D21  0.4-  0.3+
    090828 703  0.4-  0.2+    090828 703  0.7+  0.3-
    
    Ephemeris:
    2009 QE34                a,e,i = 1.29, 0.23, 3                   q = 0.9907
    Date    TT    R. A. (2000) Decl.     Delta      r     Elong.  Phase     V
    2009 08 27    03 55.81   +02 43.3    0.0344   1.015    96.1    82.0    19.0
    2009 09 06    03 08.67   -02 34.9    0.0557   1.035   117.7    59.6    19.3
    2009 09 16    02 42.41   -05 01.1    0.0780   1.060   133.2    43.8    19.7
    2009 09 26    02 20.80   -06 16.6    0.102    1.090   146.7    30.4    19.9
    2009 10 06    02 01.91   -06 38.3    0.130    1.122   157.9    19.6    20.2
    2009 10 16    01 46.36   -06 15.2    0.165    1.156   163.9    13.8    20.6
    2009 10 26    01 35.40   -05 13.2    0.206    1.191   161.3    15.6    21.2
    2009 11 05    01 29.76   -03 42.1    0.257    1.227   153.9    20.8    21.9
    
    Sonia Keys                   (C) Copyright 2009 MPC           M.P.E.C. 2009-Q61
    

    Read MPEC 2009-Q60 Read MPEC 2009-Q62


    MPEC number:

    Enter an MPEC number in one of the following forms:

    • 1997-B01 (the full form)
    • J97B01 (the packed version of the full form)
    • B01 (the abbreviated form)